GFSCGP_250_spd_000.txt.gz
Wind_Speed
13 11 12 13 12 12 14 15 17 20 20 24 21 20 22 24 25 27 29 34 37 36 38 39 43 45 43 47 47 46 47 49 51 53 55 55 57 60 62 61 61 59 60 62
11 10 13 12 13 15 17 17 16 16 19 21 22 24 25 28 29 29 31 35 37 40 41 42 43 44 47 51 54 53 52 54 55 58 59 58 58 59 63 65 68 68 68 69
12 14 16 15 15 14 13 13 15 18 23 24 25 29 30 31 32 34 37 40 41 42 42 49 47 48 50 53 56 59 58 60 62 59 60 61 63 65 68 71 73 75 77 78
15 15 18 20 19 18 16 19 20 23 23 25 28 29 30 30 32 34 34 35 37 41 45 48 54 52 53 55 58 58 61 60 62 62 63 66 70 71 73 76 79 82 86 89
20 19 19 21 24 22 21 24 25 27 28 30 30 28 27 26 29 31 33 36 41 43 48 55 53 53 54 56 57 58 59 62 65 70 72 73 75 78 81 86 89 91 93 97
25 22 18 20 23 23 23 25 29 31 32 28 26 26 27 26 28 31 36 37 40 48 53 51 50 52 55 57 60 62 66 69 74 76 79 83 88 92 94 97 99 102 103 106
27 26 22 21 21 24 25 25 25 25 23 25 26 28 31 33 34 38 43 47 49 50 51 50 52 55 58 60 62 66 71 75 80 84 87 90 93 96 100 103 103 105 106 107
26 27 26 26 24 24 26 26 25 23 24 25 26 32 37 39 38 41 42 41 42 47 51 54 56 59 61 64 68 72 77 82 84 87 91 95 98 101 102 105 109 109 111 112
21 25 26 28 27 26 26 26 27 28 29 32 39 46 46 42 41 40 43 45 49 53 56 58 60 62 66 70 75 79 82 86 89 91 95 98 103 107 110 113 115 113 114 116
19 23 26 26 27 27 27 30 32 32 33 37 44 54 47 37 42 49 52 54 53 55 59 63 66 69 73 78 83 85 87 88 92 95 98 102 108 110 115 115 115 116 112 112
16 21 26 28 30 30 31 33 34 36 39 42 33 48 44 49 53 54 54 55 60 62 66 72 75 79 82 84 84 84 90 96 97 103 107 112 116 119 122 120 118 116 112 111
11 14 19 28 31 33 35 37 38 39 39 38 37 46 50 51 50 51 55 58 63 68 72 76 78 77 77 81 86 90 97 101 108 111 115 120 125 128 128 124 123 118 113 107
16 13 12 16 20 23 26 28 27 31 36 41 45 46 47 46 51 56 60 63 64 70 74 74 79 83 87 90 94 101 105 110 114 118 122 125 131 133 131 126 120 113 105 102
25 24 24 25 30 33 34 34 35 37 40 42 46 44 54 57 60 62 64 62 71 76 80 84 87 92 95 99 104 109 112 116 121 126 129 131 137 140 127 118 111 105 102 100
34 34 31 34 35 35 37 37 40 41 45 43 48 53 59 60 62 65 69 75 79 82 84 89 94 100 105 108 111 116 120 124 128 133 137 138 138 127 116 109 103 101 100 98
31 30 31 36 35 37 43 45 45 46 50 51 54 58 63 65 68 71 76 79 84 87 92 97 102 105 108 114 117 122 129 134 136 137 137 135 128 116 109 106 103 99 96 92
36 34 32 36 38 42 51 51 46 49 55 58 59 63 66 69 73 78 81 85 91 96 99 103 109 115 119 124 125 129 135 140 141 136 133 122 111 108 108 106 101 95 90 85
37 36 35 36 39 40 57 52 50 53 59 65 67 69 71 76 80 85 89 94 97 100 105 110 116 122 125 129 133 141 141 141 135 128 120 113 108 106 104 99 92 86 80 77
43 44 41 43 45 45 55 56 56 59 63 70 73 76 81 85 85 90 95 101 103 104 112 119 123 127 131 137 140 146 137 130 121 116 112 109 106 102 96 91 85 80 75 70
50 49 49 51 53 52 59 61 62 63 66 71 78 83 89 93 95 96 101 103 106 113 122 126 129 135 145 144 148 136 126 118 114 110 110 106 99 93 90 85 80 74 69 67
51 51 55 58 57 57 62 65 67 70 73 78 82 87 91 98 103 105 108 112 119 122 126 131 137 146 148 145 135 125 117 112 109 110 105 96 90 87 82 77 72 70 68 64
56 58 62 61 63 65 67 70 75 79 81 86 88 92 99 102 106 110 115 121 126 128 132 138 145 152 144 133 125 118 113 111 109 100 92 87 84 79 75 71 69 66 62 57
63 68 64 68 68 73 73 77 83 85 88 91 98 102 105 111 115 119 125 127 130 133 137 144 149 147 131 122 119 114 113 109 100 92 87 83 79 74 70 68 64 60 56 54
68 71 70 71 74 78 83 85 89 93 98 102 108 110 116 121 127 129 131 132 136 139 145 149 145 128 120 115 112 110 107 98 91 85 81 77 73 71 66 61 57 54 53 52
75 75 76 77 81 84 88 94 97 101 105 109 114 120 126 126 133 134 134 136 140 146 150 140 125 118 114 109 108 103 96 90 86 80 76 73 70 65 62 59 55 53 50 50
81 82 84 86 91 94 95 98 101 106 110 116 122 127 133 134 134 135 137 141 147 150 135 123 117 112 109 107 102 95 89 85 80 76 72 68 65 62 58 56 55 50 48 48

GFSCGP_250_spd_006.txt.gz
Wind_Speed
14 10 12 14 15 16 16 15 16 17 18 17 19 22 24 26 29 32 35 38 39 35 34 34 35 38 39 36 37 39 43 47 45 45 49 52 54 56 58 60 62 64 67 69
13 13 11 14 17 17 15 14 14 15 16 21 23 26 31 30 32 30 31 31 31 33 34 36 38 41 41 42 44 46 46 45 47 50 55 56 59 60 62 65 68 70 71 71
12 13 14 14 15 14 13 11 11 14 18 21 23 23 22 25 27 30 28 29 30 33 34 39 43 46 47 49 44 44 48 52 54 55 57 59 61 66 68 70 71 71 71 72
15 15 16 14 14 16 18 16 15 16 19 19 22 23 25 26 30 28 28 28 30 33 40 44 47 47 43 44 47 50 53 54 55 57 60 63 65 68 69 69 72 75 76 79
16 19 20 20 20 17 18 19 19 20 20 23 25 27 29 30 26 27 28 30 34 43 44 44 40 43 48 49 52 52 53 56 57 60 63 66 68 71 74 77 78 83 86 88
17 20 23 25 24 22 21 21 23 23 25 25 26 28 26 29 28 28 29 35 43 44 42 42 48 49 51 51 53 56 59 62 66 67 72 75 77 79 84 87 91 94 97 98
14 19 23 23 24 27 27 24 24 25 26 27 29 31 28 30 30 33 37 43 43 40 44 50 52 52 53 56 59 63 66 70 69 76 80 82 86 89 92 95 99 103 104 108
11 15 16 20 21 22 25 27 27 28 28 29 32 32 30 33 33 36 40 42 41 45 51 51 51 54 57 61 62 64 67 69 74 79 84 87 91 94 97 100 106 109 113 117
11 12 12 15 18 20 21 24 28 29 29 29 31 31 34 36 36 38 39 41 45 52 53 54 57 60 61 61 63 69 73 76 81 85 90 94 99 102 107 111 113 117 122 125
11 12 13 13 12 14 17 20 23 27 26 26 35 35 36 35 33 36 41 47 50 52 54 57 59 61 60 63 68 74 78 82 87 93 98 102 105 111 113 115 119 124 127 129
7 10 11 12 12 12 12 12 16 20 23 25 30 37 32 31 36 41 46 49 52 54 57 59 63 62 65 72 78 83 86 91 96 100 104 108 112 118 121 126 128 130 132 132
10 12 15 16 16 16 17 18 18 19 24 31 32 39 37 35 40 45 48 51 54 59 64 65 66 70 75 81 86 90 94 98 104 107 111 115 119 125 129 130 133 133 131 124
21 23 23 21 23 23 22 23 23 25 27 31 33 38 38 41 48 49 53 58 59 63 67 69 73 77 82 87 92 95 100 105 109 114 118 123 128 131 133 133 132 128 119 111
26 28 28 26 27 26 25 24 26 27 27 29 36 37 42 45 47 53 57 60 61 66 70 74 79 84 88 93 97 102 108 113 118 123 126 130 132 135 135 127 119 111 107 106
27 30 32 32 32 35 33 30 31 31 35 36 39 41 44 49 53 61 63 65 67 72 77 81 85 88 95 98 103 109 114 118 124 129 132 130 130 125 118 110 105 104 104 102
28 32 36 39 35 37 36 32 34 37 36 38 42 47 52 53 60 63 65 67 72 78 81 85 91 97 100 103 108 116 120 128 136 136 128 124 116 110 105 105 104 102 99 94
34 36 37 40 39 43 37 39 40 41 42 45 48 53 57 61 65 67 70 75 80 83 87 93 97 101 105 111 116 122 132 134 130 122 117 110 105 105 104 103 99 94 88 83
39 41 40 39 39 44 38 41 43 46 49 52 56 60 63 68 70 72 75 81 84 86 94 97 101 107 114 119 127 130 134 128 119 114 107 105 105 103 100 96 90 84 79 75
44 44 40 37 37 45 44 45 48 49 55 60 62 65 71 73 77 81 83 87 96 98 100 105 112 116 121 129 131 131 126 115 110 105 105 103 101 97 92 85 80 75 73 70
49 46 43 41 43 45 43 47 50 54 58 62 68 72 74 76 79 82 89 99 102 107 109 114 119 125 129 131 129 120 111 107 106 103 101 99 94 86 81 77 73 70 68 67
52 50 46 47 46 46 47 52 57 61 63 67 70 73 78 83 88 92 97 101 107 113 117 121 126 130 129 126 113 108 106 104 103 101 96 91 84 79 77 73 69 67 65 64
56 53 49 51 52 51 55 58 61 64 66 70 74 78 83 88 92 99 105 111 116 120 124 128 128 125 122 111 108 106 105 103 101 96 89 83 78 75 73 69 66 64 63 61
57 54 55 52 57 56 60 62 64 67 70 75 79 85 92 97 101 108 114 117 122 127 128 126 120 115 108 108 106 103 102 100 95 89 82 78 75 72 69 66 63 62 60 56
60 59 59 58 63 64 67 69 73 77 79 82 88 94 101 106 111 112 118 124 127 126 121 115 109 105 106 105 104 100 95 90 86 81 77 74 71 69 66 63 61 59 56 52
64 62 62 64 67 70 76 80 83 84 86 92 98 104 108 112 113 120 122 125 121 115 107 105 104 103 103 101 97 94 89 83 79 76 74 71 68 65 62 62 60 54 51 50
67 65 67 70 73 78 81 82 86 89 93 98 106 110 112 117 121 123 123 121 114 109 105 105 105 103 100 96 92 87 82 78 74 72 70 67 65 63 61 60 54 51 47 48

GFSCGP_250_spd_009.txt.gz
Wind_Speed
23 22 21 21 22 21 21 20 18 17 19 21 22 22 23 25 25 26 29 32 34 35 35 36 36 35 35 39 42 46 46 50 48 45 47 52 54 55 56 56 58 61 65 67
17 16 17 17 17 17 16 15 14 16 17 19 21 24 26 28 29 31 34 35 34 35 33 33 33 35 41 47 49 47 43 46 49 51 53 56 57 59 63 65 66 66 69 73
14 15 16 16 17 16 15 16 17 18 19 23 25 26 27 30 29 29 30 33 35 34 34 32 36 42 46 47 41 46 51 51 53 53 55 59 61 64 68 71 71 74 74 74
15 15 16 18 18 18 19 20 21 21 20 21 26 29 31 30 32 31 33 34 34 34 34 36 41 46 46 44 51 54 55 55 55 59 61 64 65 67 69 69 70 77 80 83
16 21 23 22 21 22 23 24 24 24 25 26 26 32 24 32 33 32 31 33 35 37 39 43 48 48 45 52 56 56 56 58 63 66 67 66 68 74 75 77 79 84 89 91
13 15 18 21 25 27 26 26 26 28 30 30 30 34 24 30 28 30 32 34 37 41 44 47 49 48 51 58 59 60 63 64 67 67 67 72 76 79 82 85 90 94 98 101
9 11 13 16 21 24 27 29 31 31 31 30 33 35 29 34 34 30 32 36 39 43 47 47 48 50 57 59 62 65 67 68 67 68 76 80 83 87 91 94 98 102 106 109
4 7 11 14 15 17 21 24 29 32 34 34 36 36 30 32 33 37 40 43 43 45 47 49 52 57 59 61 63 68 70 70 72 76 82 86 91 94 97 102 105 111 114 117
6 7 8 9 9 12 16 18 20 26 30 35 37 37 30 38 38 42 42 43 43 45 50 54 58 61 63 65 69 70 72 76 79 83 88 92 95 98 104 107 112 116 121 127
5 8 11 12 11 10 11 14 17 19 23 27 31 37 30 37 37 37 39 42 46 48 53 58 62 65 66 67 71 74 78 83 87 90 94 100 102 106 110 115 120 126 131 134
8 10 12 14 14 15 16 18 18 18 21 23 28 37 32 35 38 41 43 45 48 54 56 59 64 66 69 73 77 81 85 89 93 96 102 105 109 114 118 124 129 133 137 140
11 14 17 19 19 18 20 21 23 27 29 33 34 41 39 39 38 42 45 50 51 55 58 63 66 68 71 76 82 86 90 94 100 103 107 112 116 122 128 131 136 139 139 134
18 20 22 23 24 24 25 23 24 26 29 33 34 39 36 39 43 47 47 50 54 56 64 69 71 75 78 82 87 94 97 102 106 111 115 121 127 132 135 136 136 130 122 115
23 24 26 27 27 28 27 29 32 33 35 36 38 38 44 44 45 47 53 56 59 65 71 73 76 79 83 87 93 101 103 108 114 118 123 130 135 137 134 131 126 118 115 112
26 28 30 31 33 35 35 37 37 37 39 39 42 44 44 45 50 52 56 62 64 71 74 77 81 85 90 96 102 108 112 116 121 127 132 133 135 130 125 120 117 113 111 109
29 29 34 39 40 41 40 39 39 40 39 42 44 46 49 51 53 57 60 66 71 74 78 83 86 91 97 102 108 114 121 130 136 137 135 132 123 119 115 113 110 108 106 102
32 34 36 40 42 45 45 43 39 39 40 44 45 48 51 54 58 62 65 71 73 76 81 85 91 99 106 111 119 125 133 138 136 128 121 115 111 111 110 107 106 102 96 89
39 39 40 42 44 47 44 45 44 46 44 43 46 49 54 59 63 66 69 72 77 81 88 95 102 109 115 122 126 129 135 129 121 112 108 107 107 106 104 101 95 89 84 79
44 45 45 46 47 48 48 46 46 48 47 48 51 53 59 63 67 74 74 78 82 89 96 103 111 119 120 125 129 130 123 116 113 107 108 107 104 101 97 91 84 80 75 72
50 51 51 50 50 50 48 46 49 47 49 51 56 61 64 68 72 79 82 88 93 100 106 112 117 122 126 129 125 122 116 112 111 102 103 102 100 96 89 83 77 74 69 66
54 53 56 52 53 52 50 51 54 53 54 59 63 68 72 76 79 83 87 92 99 106 112 119 124 128 128 126 121 116 112 111 108 105 100 95 91 84 79 74 71 67 65 63
55 55 57 57 60 55 53 52 55 57 61 64 68 73 77 80 84 88 94 100 108 114 121 127 127 127 123 120 114 111 112 111 105 101 95 89 83 77 72 69 66 64 63 61
61 60 61 60 66 62 59 57 59 63 66 69 74 77 81 86 91 97 104 109 117 124 126 126 125 123 120 115 112 108 108 105 99 94 87 81 75 71 68 66 64 63 62 59
68 66 62 63 68 64 65 65 66 70 73 77 81 86 90 94 100 105 111 116 122 124 125 122 121 120 115 111 108 106 101 96 90 83 78 74 70 68 66 64 61 58 56 54
75 71 67 66 68 68 71 69 74 76 81 85 90 92 97 103 107 114 117 124 127 128 124 122 121 117 113 109 105 100 93 86 79 75 72 69 67 65 63 60 59 54 52 50
78 72 68 67 68 71 73 75 77 83 87 91 95 100 106 111 114 118 122 127 128 125 123 122 118 112 109 107 99 92 84 77 74 72 69 66 63 62 60 57 53 52 51 49

GFSCGP_250_spd_012.txt.gz
Wind_Speed
28 29 30 31 33 33 37 39 40 38 38 36 32 27 24 24 24 24 26 27 30 29 31 32 38 35 35 36 37 42 44 51 47 46 52 58 57 56 55 59 61 66 66 67
27 29 30 32 33 32 31 30 27 27 26 26 25 23 24 25 24 25 27 31 33 33 33 36 38 40 37 40 43 45 48 51 51 55 57 58 59 60 62 65 67 65 66 69
17 20 21 22 23 23 24 24 24 25 26 27 27 26 25 26 26 27 31 35 37 37 38 40 40 41 41 45 48 50 52 52 58 59 59 63 65 67 69 70 70 68 73 76
15 17 18 20 23 22 22 23 23 25 27 24 29 30 25 30 30 31 35 36 37 38 42 40 42 45 48 51 53 54 54 56 64 66 63 65 69 70 73 73 73 78 81 84
13 16 18 20 22 21 23 23 24 25 26 26 30 35 24 28 33 33 37 37 39 39 38 39 43 46 49 53 56 57 58 62 67 68 69 71 71 71 75 77 80 85 90 93
10 14 15 18 21 24 24 24 26 27 29 31 34 38 29 31 30 33 40 38 39 40 39 43 46 48 52 56 57 59 66 69 68 69 74 75 78 83 86 89 91 94 98 102
7 8 9 11 15 19 23 26 28 30 32 35 37 40 31 35 38 29 34 37 41 41 45 47 51 53 49 55 61 65 70 72 74 73 74 80 85 89 91 94 99 102 106 111
1 3 5 7 8 9 10 14 18 22 27 29 37 42 32 36 42 35 34 35 38 44 49 51 51 51 55 57 59 63 69 74 76 79 80 83 88 93 96 102 106 110 115 120
7 6 7 9 11 11 11 10 12 14 17 22 28 29 27 32 38 40 40 42 44 46 46 49 52 55 59 60 63 68 72 77 81 84 88 91 95 99 104 113 116 120 126 130
2 5 8 9 12 14 16 18 20 21 23 25 26 30 25 27 30 33 40 44 46 48 49 51 54 56 61 63 67 75 79 81 85 90 95 98 102 106 114 120 125 131 134 136
4 7 10 12 14 15 17 20 23 23 26 28 31 39 34 36 35 38 41 42 44 49 51 53 57 61 64 70 76 81 84 86 91 94 98 105 112 119 126 131 135 136 134 137
8 11 12 15 17 17 17 19 21 26 29 31 35 42 39 41 42 42 45 48 52 54 54 58 63 67 70 74 79 83 86 90 95 101 107 114 121 129 135 135 136 133 132 128
15 17 18 20 22 26 28 31 33 35 37 38 37 41 43 42 43 45 49 52 51 54 58 62 67 72 77 81 85 89 93 98 103 110 117 124 130 136 136 138 132 125 121 120
19 21 22 23 24 26 29 32 34 34 38 41 39 40 45 47 44 48 50 52 54 60 64 68 71 76 82 87 91 96 102 108 114 120 123 132 136 134 135 128 119 117 116 116
22 25 26 26 29 31 33 35 37 40 40 39 43 41 41 44 48 49 51 53 57 61 66 72 78 82 87 92 97 102 108 115 123 130 135 131 126 120 117 119 115 114 114 113
24 27 31 31 33 36 39 40 42 44 45 44 44 46 47 48 49 48 53 57 61 66 72 76 81 87 91 96 101 110 117 122 130 134 135 133 127 118 109 107 109 107 104 100
30 32 36 40 42 42 44 44 46 49 47 47 49 48 50 48 50 52 56 64 67 71 76 81 86 90 95 103 110 116 121 130 135 133 130 129 124 117 110 107 103 97 93 88
36 39 42 44 47 50 50 50 49 48 50 52 50 49 49 52 55 56 61 66 70 76 82 86 92 96 104 111 116 122 127 133 133 128 123 120 112 107 104 102 96 91 85 81
44 46 48 49 50 53 52 50 54 50 54 53 53 51 52 54 58 63 65 71 76 82 88 93 99 106 111 116 124 127 130 129 128 122 118 114 109 101 98 94 89 84 79 77
49 50 53 54 54 55 56 55 55 54 56 55 56 57 59 61 64 71 75 80 86 92 96 101 107 112 119 125 128 129 130 124 123 115 110 107 106 99 92 85 81 78 74 70
53 54 55 55 56 56 57 58 62 62 61 60 59 61 64 66 71 75 82 87 92 95 101 108 115 121 124 128 130 130 124 121 115 110 103 101 98 94 85 80 76 72 69 66
60 63 62 61 61 60 61 60 64 69 66 62 62 65 67 71 77 83 88 93 96 102 109 114 120 123 129 129 130 127 119 113 108 103 99 93 88 83 79 76 72 68 65 62
69 69 65 64 66 68 68 64 65 66 64 65 67 70 73 80 86 90 93 97 102 109 114 118 122 126 128 130 130 120 113 107 102 98 91 85 79 76 73 71 67 65 61 58
67 69 66 63 66 67 69 69 67 67 66 67 72 76 82 86 90 92 99 104 110 113 117 122 126 126 129 131 123 115 109 104 97 90 83 78 75 72 69 66 64 60 58 55
70 70 71 67 66 67 69 67 68 69 70 74 78 83 87 91 95 100 105 109 114 117 121 126 126 127 129 123 117 111 104 98 91 84 78 75 71 69 66 63 62 59 56 54
74 73 71 68 66 69 69 69 71 74 78 81 86 90 94 98 102 106 108 115 118 124 125 125 126 129 125 119 111 104 98 92 85 79 75 72 69 66 64 62 58 56 54 52

GFSCGP_250_spd_015.txt.gz
Wind_Speed
28 33 36 36 37 39 39 38 37 42 40 40 41 39 43 44 42 44 44 39 36 32 34 33 36 37 35 37 35 36 41 43 46 50 56 60 58 59 60 65 63 62 63 66
25 27 28 30 29 29 29 31 32 33 33 35 38 36 41 40 38 37 35 35 34 34 35 35 34 34 38 42 46 43 45 50 53 57 59 59 62 64 68 68 67 68 71 72
16 19 21 23 27 30 32 31 28 30 31 33 35 34 31 34 33 32 35 35 34 35 35 37 37 39 40 41 46 50 52 54 56 58 57 61 65 68 70 71 73 75 77 79
16 17 18 20 20 20 24 23 25 26 28 30 34 29 30 32 35 31 34 37 37 36 37 43 41 39 41 46 49 51 55 60 60 57 60 63 66 70 74 76 78 81 84 88
9 10 12 13 13 17 22 20 23 25 28 30 36 32 28 29 27 33 37 34 37 37 38 40 43 46 49 52 54 57 59 61 60 61 65 66 72 76 79 82 85 87 91 95
10 11 13 15 16 18 22 24 24 25 27 31 33 35 32 26 27 30 36 39 45 42 42 38 38 44 51 56 59 60 59 61 61 65 67 70 77 83 87 90 92 95 100 104
8 7 7 7 8 11 13 16 19 23 26 29 31 35 31 31 31 31 32 36 38 39 38 38 41 44 48 53 56 60 63 67 69 71 71 76 81 85 89 93 97 101 107 111
6 7 6 5 5 3 4 6 9 11 16 22 24 26 29 28 28 26 29 31 34 38 41 44 44 47 49 50 54 58 61 67 73 78 82 86 90 93 98 102 107 110 114 118
11 9 7 6 7 8 10 11 13 15 18 22 19 22 23 27 28 29 29 33 35 41 39 44 45 49 53 57 58 61 66 71 76 81 86 92 97 101 104 109 115 118 122 127
6 4 3 4 7 9 12 13 16 18 22 28 29 25 31 31 33 35 35 36 41 45 47 47 50 54 57 59 63 67 72 78 82 86 91 97 102 106 110 114 120 126 130 131
3 1 3 6 8 11 12 16 16 16 20 25 35 31 31 35 36 39 42 43 46 48 51 53 55 56 59 63 66 72 78 82 85 92 98 103 106 110 117 123 130 134 136 137
6 7 9 12 12 13 15 17 19 24 25 28 34 43 36 37 39 40 42 43 47 48 53 56 57 60 63 67 71 75 81 87 92 97 102 107 113 119 125 130 137 135 130 127
9 11 14 17 19 20 19 23 26 30 34 34 35 41 38 41 43 44 47 46 48 53 55 56 58 62 66 72 78 82 88 93 98 102 108 115 123 129 133 129 123 123 117 114
14 15 16 18 19 21 23 26 28 29 33 39 41 42 46 44 46 46 48 50 52 53 53 57 62 66 71 75 82 88 93 99 103 108 116 122 130 131 131 130 126 117 112 110
18 19 19 21 23 27 29 33 35 37 39 41 45 45 47 51 47 47 51 54 55 54 58 62 66 71 75 80 85 92 99 104 111 118 124 128 129 132 126 122 120 117 114 106
22 24 25 27 30 34 38 39 42 45 47 49 47 51 51 51 52 53 55 56 57 59 61 65 69 74 80 86 92 99 105 112 119 124 127 130 131 129 125 118 110 110 106 98
27 29 31 34 38 42 45 48 49 51 51 52 50 52 55 55 55 56 56 58 60 63 65 71 76 82 88 93 99 105 110 117 121 126 131 132 128 123 117 114 105 99 94 89
31 33 37 41 43 44 43 48 51 53 54 57 55 55 56 58 58 58 59 60 63 65 69 77 84 89 94 99 106 109 115 123 127 131 129 128 124 117 112 107 99 92 87 84
35 36 37 40 44 49 48 54 58 57 58 62 62 62 61 63 62 59 60 61 65 70 77 84 88 95 101 107 110 115 122 128 132 131 126 124 117 111 104 97 90 85 81 79
34 38 44 47 51 53 55 60 62 59 60 63 65 67 65 66 63 62 63 68 73 79 85 90 95 102 108 111 116 122 128 130 131 129 125 116 109 102 95 90 82 78 77 74
44 48 52 54 56 59 61 59 58 60 60 61 63 64 64 64 64 65 68 73 79 85 90 96 102 108 113 117 122 127 132 133 126 123 120 109 102 95 90 83 79 77 74 70
52 56 60 61 63 64 63 59 61 65 63 62 60 62 63 65 68 72 76 81 87 92 96 102 107 112 117 122 128 129 131 128 123 119 110 104 97 91 82 78 75 71 69 66
57 62 66 67 68 70 65 64 62 62 65 65 63 63 66 69 74 80 83 89 95 98 103 108 112 118 123 127 131 131 130 127 119 112 104 97 92 84 78 74 71 68 66 63
65 68 71 71 71 75 72 64 62 63 65 66 66 69 72 76 81 85 92 97 101 106 109 113 119 123 127 130 131 130 128 123 115 106 98 93 85 79 75 71 69 66 63 59
70 74 76 74 78 77 71 67 67 67 67 69 71 75 79 84 89 94 99 104 107 112 117 122 125 128 129 130 129 129 126 118 109 100 93 86 79 76 72 69 66 63 60 56
72 76 80 78 81 79 71 71 72 73 74 76 79 81 86 91 96 102 106 110 114 118 121 125 127 129 129 130 129 126 119 110 101 94 87 79 75 72 69 66 63 59 57 54

GFSCGP_250_spd_018.txt.gz
Wind_Speed
26 28 30 30 31 35 36 41 44 42 43 44 46 49 53 48 45 44 41 44 45 45 43 39 42 43 44 39 37 43 48 52 51 50 53 57 60 63 66 67 65 65 66 67
22 23 24 27 29 31 35 39 41 39 40 38 34 36 39 37 36 40 41 41 41 40 40 38 40 42 45 42 45 46 47 49 50 53 57 62 65 68 71 67 67 70 71 74
19 19 21 22 23 27 29 31 31 31 34 36 35 34 37 36 34 34 36 39 41 40 40 40 41 42 43 44 45 47 48 51 53 57 61 65 69 70 69 71 73 77 80 82
12 15 15 16 21 22 23 27 32 33 31 31 29 26 27 28 30 32 34 35 38 37 37 39 41 42 43 44 46 50 52 54 57 61 64 66 68 70 72 75 80 83 86 90
15 15 14 16 20 19 20 21 22 24 25 27 26 26 24 28 32 34 34 36 40 42 42 46 44 44 44 46 50 53 54 56 60 62 63 65 67 70 75 81 86 92 96 98
15 15 13 14 14 14 17 19 22 25 27 28 27 24 21 29 32 32 36 39 40 41 45 48 50 51 50 53 53 53 54 58 59 60 64 67 71 76 80 86 91 95 100 103
9 9 8 9 9 11 14 16 16 17 18 13 13 14 14 17 20 25 29 30 29 31 36 42 44 44 48 51 54 56 56 57 61 64 67 72 76 80 85 89 94 99 105 110
8 9 8 7 6 4 3 1 3 6 8 8 11 14 17 17 19 19 23 26 29 35 40 41 39 44 47 52 56 60 62 65 68 71 74 78 81 85 90 95 100 105 111 116
15 14 12 9 5 2 3 6 8 10 12 13 14 18 20 24 26 26 27 31 34 37 41 43 45 48 51 55 57 59 64 66 69 72 75 79 84 90 94 100 107 112 117 122
12 9 6 3 1 3 6 8 10 13 15 14 15 18 20 23 25 29 31 34 38 40 41 45 48 49 52 55 59 62 64 67 71 75 80 85 92 97 103 109 114 117 121 128
9 6 2 3 6 9 12 14 15 18 21 24 22 24 27 29 33 35 35 36 39 42 44 45 47 51 55 58 60 62 67 72 76 81 86 91 98 104 110 115 118 123 127 127
9 9 8 10 11 13 16 16 20 22 22 29 32 32 35 38 38 40 43 45 46 47 49 50 52 55 56 59 63 66 71 76 81 86 92 99 104 108 115 120 125 129 126 124
12 12 13 13 14 14 15 18 23 27 29 31 35 36 38 40 44 45 47 48 49 51 53 54 55 57 59 63 67 71 76 82 87 94 99 105 111 117 121 126 131 128 125 119
15 16 16 17 18 17 18 21 27 30 34 39 40 45 46 45 46 48 51 52 54 56 59 59 60 60 62 66 70 75 81 86 93 98 105 112 117 122 126 128 124 125 121 117
16 18 18 18 20 22 25 30 32 35 38 41 44 47 48 50 51 53 54 55 57 59 60 62 61 63 65 69 74 79 87 92 97 105 112 116 122 127 126 124 121 120 117 111
18 19 21 22 23 27 31 35 37 39 43 46 50 54 53 52 54 56 58 59 60 61 61 60 60 63 69 74 79 86 93 99 105 112 117 125 127 127 126 122 118 115 111 102
21 22 24 26 27 30 34 37 40 43 48 50 56 58 56 54 57 60 61 61 61 60 60 61 65 70 75 81 88 95 100 106 112 118 124 129 130 126 121 119 112 107 101 94
25 25 26 28 29 31 36 41 44 49 54 54 58 58 57 57 59 60 61 61 62 62 63 67 72 79 83 90 96 101 107 113 120 123 128 130 126 123 119 113 105 97 90 85
27 27 29 31 35 38 43 46 49 53 59 59 63 62 59 59 60 59 60 62 64 65 70 74 80 85 91 97 103 109 114 121 123 127 129 125 124 119 115 107 98 87 82 79
27 29 36 39 41 44 50 53 55 58 63 64 69 66 63 62 60 60 62 64 68 72 75 81 87 93 98 104 110 115 120 127 128 129 127 125 119 116 109 99 91 84 79 76
37 39 42 46 49 52 54 57 60 63 63 65 70 68 64 64 64 65 67 71 75 78 84 89 94 99 105 111 115 120 127 131 130 126 126 123 119 111 101 93 86 80 77 73
41 45 49 53 57 57 61 64 65 66 69 69 74 69 66 66 68 72 74 77 80 86 90 95 100 105 111 116 120 127 127 128 128 127 125 122 115 106 97 89 81 77 72 68
50 52 54 56 59 63 67 69 69 71 72 73 75 70 69 69 72 75 78 82 87 92 96 101 105 110 116 120 127 129 128 131 130 126 124 117 109 99 91 83 78 73 68 66
51 54 60 64 67 70 70 71 73 73 75 77 75 71 71 73 76 79 84 88 94 98 103 107 111 115 122 127 131 131 131 130 127 124 119 110 102 92 84 78 74 69 66 63
61 63 69 69 73 70 71 74 75 77 79 79 73 72 75 79 82 86 90 94 99 103 107 113 117 120 126 131 131 131 130 127 124 119 109 101 93 85 79 75 69 66 63 60
69 73 75 73 74 74 76 76 77 80 81 78 76 79 82 84 87 91 95 100 106 109 114 119 122 126 131 131 128 128 126 123 116 109 100 92 86 79 75 70 65 62 60 58

GFSCGP_250_spd_021.txt.gz
Wind_Speed
29 30 30 27 30 36 38 38 37 37 36 36 41 44 45 53 59 58 56 53 47 44 45 47 48 48 49 49 37 40 48 55 60 66 66 69 70 69 68 67 69 71 73 75
30 28 26 27 29 30 31 31 31 31 32 36 40 42 41 40 39 40 39 41 43 44 44 45 48 49 47 41 46 46 52 57 61 63 66 69 69 69 70 72 74 75 75 75
24 24 23 23 25 26 28 29 29 29 30 33 32 31 34 35 37 40 40 38 37 36 37 40 43 47 50 52 55 55 56 59 58 61 65 66 68 69 71 73 74 76 79 81
20 20 19 20 20 21 23 25 25 24 25 27 24 30 33 32 32 33 34 31 32 35 36 39 44 48 51 51 52 51 53 55 57 59 63 66 68 70 72 74 78 80 81 83
17 16 19 17 19 20 21 22 24 25 23 21 21 20 23 27 29 29 32 35 37 38 40 45 50 51 51 50 50 54 54 55 58 61 65 68 71 73 76 79 80 82 86 89
14 16 16 16 16 18 19 20 21 22 21 19 19 20 22 25 26 29 31 34 35 34 37 42 45 45 43 41 47 52 54 57 60 63 65 68 72 74 78 80 83 88 91 96
17 17 15 15 15 16 17 17 16 12 8 6 5 6 10 12 16 20 24 28 31 34 38 42 44 44 44 44 50 53 56 59 62 65 68 71 74 77 80 83 87 92 96 100
14 13 13 13 11 9 7 4 2 1 5 8 8 9 11 14 16 21 25 28 31 35 39 43 47 50 51 51 54 56 58 62 66 68 71 73 76 79 82 87 91 96 101 106
11 12 12 10 9 8 5 2 2 5 8 11 13 16 16 17 21 24 27 30 32 35 38 40 43 45 48 52 55 57 60 63 66 69 71 74 78 82 87 91 97 103 108 113
17 15 12 10 7 3 1 5 8 10 12 15 17 18 21 23 25 27 30 32 34 36 38 42 45 48 50 53 55 59 62 65 67 68 72 76 81 86 91 96 103 109 114 119
15 13 10 5 3 4 8 11 12 14 16 19 22 23 24 27 30 33 36 38 41 42 44 46 48 50 53 56 59 60 63 65 68 71 75 79 83 88 94 102 108 113 119 125
13 10 7 7 8 10 11 13 15 16 17 20 22 26 29 31 34 37 40 42 45 47 49 51 52 54 55 57 60 62 64 66 69 74 79 84 89 95 103 110 115 121 127 127
13 10 10 11 13 15 15 15 16 19 24 27 29 31 36 39 42 45 48 49 50 50 53 55 57 58 59 60 61 62 65 68 73 79 86 92 100 106 112 118 122 127 124 122
12 13 15 17 17 16 17 19 21 25 28 29 32 35 39 43 48 51 53 53 52 53 55 58 59 60 59 60 62 65 69 75 82 89 95 102 107 112 118 121 127 125 120 115
16 18 19 19 21 20 20 21 26 29 28 32 36 43 45 47 51 54 56 56 55 57 57 58 60 61 62 64 67 72 77 82 90 97 102 107 113 118 123 128 127 123 116 111
18 19 20 22 22 23 24 26 29 28 32 37 40 45 49 52 53 58 58 57 56 56 57 58 60 63 65 69 73 79 85 90 98 103 109 114 119 124 129 126 125 119 116 110
20 21 21 24 23 24 30 30 28 34 40 43 45 50 54 54 57 60 62 60 58 58 59 60 62 65 69 74 79 86 92 98 104 109 114 119 123 130 129 127 122 121 111 106
23 24 25 27 27 26 31 35 34 38 45 48 51 56 58 60 60 63 66 64 61 59 61 64 68 73 77 81 87 93 99 105 110 114 119 123 130 131 127 124 121 115 111 101
28 29 29 28 28 28 37 41 42 45 51 54 58 61 62 65 63 66 68 66 62 63 67 71 75 80 83 90 95 100 108 112 117 123 127 131 132 126 126 122 118 113 103 93
28 26 28 31 34 35 42 47 50 52 55 61 63 63 65 70 69 72 74 70 69 69 73 76 81 85 90 96 102 108 114 119 124 129 131 130 124 125 123 120 114 103 95 87
29 30 33 36 38 40 49 52 56 56 60 65 67 66 69 73 74 76 76 73 71 73 79 82 87 91 96 104 109 114 120 125 130 131 128 125 128 126 122 115 106 97 89 81
38 37 40 43 48 49 56 57 56 62 65 69 68 70 74 76 78 79 77 76 77 81 86 89 93 97 104 110 115 120 126 129 132 130 127 128 128 124 118 107 99 90 82 76
40 45 48 54 58 59 60 60 63 66 70 71 71 73 79 80 81 81 83 82 84 88 91 94 98 104 110 115 120 125 129 132 130 128 129 128 126 120 107 99 91 82 76 70
47 54 56 59 64 66 64 65 69 73 74 73 74 79 83 83 83 85 85 85 88 92 96 99 105 111 115 122 127 129 131 130 129 130 128 126 120 110 101 92 83 76 71 66
56 62 64 61 65 65 70 74 76 78 75 75 79 83 84 82 81 84 86 89 93 97 101 107 112 116 122 127 131 131 129 128 129 129 126 119 111 103 94 84 77 72 66 62
64 68 67 66 71 72 74 77 78 77 78 80 84 84 81 81 83 87 91 95 98 102 108 113 117 122 126 132 129 127 128 127 126 122 118 111 101 93 85 78 72 67 63 60

GFSCGP_250_spd_024.txt.gz
Wind_Speed
20 20 24 26 28 32 31 30 31 37 41 44 44 47 48 48 52 53 56 54 58 63 61 58 52 49 49 49 48 42 38 37 63 63 66 69 72 74 78 79 80 79 79 77
23 27 29 29 29 29 30 30 28 31 34 36 36 37 38 39 40 42 43 45 47 43 43 43 43 43 41 34 32 42 44 49 55 61 64 70 74 78 79 80 80 80 80 79
26 26 27 28 30 29 27 24 25 28 30 29 31 32 33 35 37 39 39 40 39 39 38 38 38 40 42 46 49 53 56 59 63 65 68 70 72 73 74 76 78 79 80 81
26 25 25 25 23 23 23 23 24 24 24 24 25 28 29 31 34 36 37 37 33 33 35 37 39 42 44 46 49 54 58 60 62 65 65 66 69 72 73 74 77 79 82 85
21 21 22 23 24 21 20 19 18 18 17 18 21 22 25 27 30 29 29 32 35 36 36 36 38 38 37 38 41 44 47 52 57 58 60 64 67 71 73 76 80 82 84 86
19 19 20 19 17 15 15 16 15 14 13 16 21 24 30 31 31 29 29 28 24 25 27 30 34 37 39 41 44 48 52 55 58 60 62 65 68 70 73 76 79 81 83 86
19 18 16 16 14 13 14 12 11 13 14 14 16 16 18 17 17 19 21 23 26 29 31 33 36 39 41 44 48 52 55 58 61 63 64 66 69 71 74 76 79 83 87 91
14 13 14 15 15 14 13 11 10 9 8 8 9 12 14 16 18 21 24 26 28 30 33 37 40 43 46 48 50 53 56 59 60 62 64 67 70 72 75 78 82 87 90 95
15 17 16 14 12 10 10 10 7 6 5 6 8 12 15 18 21 24 27 30 33 37 40 42 44 46 49 52 55 58 61 62 64 66 69 72 74 75 78 81 85 90 96 102
16 15 14 13 13 11 8 5 3 5 8 11 14 17 20 24 28 29 30 33 36 39 42 45 48 51 54 56 58 62 64 65 66 68 70 71 72 75 79 84 91 98 104 107
14 15 15 13 9 6 3 5 7 9 11 13 17 20 20 22 25 29 34 38 41 44 47 49 52 54 57 59 60 62 62 63 64 65 67 70 73 78 84 90 97 102 107 110
16 13 11 9 6 5 7 10 12 12 14 16 19 21 24 27 30 34 38 42 45 48 51 51 53 54 54 57 59 60 61 62 63 65 68 73 79 86 92 99 106 110 114 116
17 14 10 6 6 9 13 15 16 17 19 21 22 25 27 31 35 38 41 44 47 51 53 54 53 53 54 55 56 59 62 63 66 70 75 82 88 94 102 108 114 117 118 119
14 11 9 9 12 15 17 19 19 20 22 24 25 27 31 35 39 45 46 47 50 54 55 56 55 54 55 57 60 62 65 68 73 78 83 91 98 104 109 116 121 120 123 120
13 12 12 14 17 18 20 22 24 26 27 29 29 32 35 40 45 51 53 53 53 55 60 61 60 58 58 59 62 66 70 75 81 86 92 99 105 111 118 123 124 127 125 123
15 17 18 19 19 21 23 27 26 29 30 29 32 38 42 44 49 54 57 58 58 61 63 66 65 63 61 63 68 74 79 84 89 93 100 107 111 117 124 125 127 126 126 123
20 20 20 22 22 22 29 30 29 31 30 35 39 42 46 51 56 59 61 63 65 67 70 71 71 67 67 70 76 81 86 91 95 100 107 111 117 123 127 128 127 127 124 120
24 25 24 26 28 25 34 36 33 29 35 40 45 47 52 54 59 63 66 66 68 71 75 74 75 74 74 77 82 87 92 97 102 107 112 117 122 127 129 125 127 124 121 113
28 28 29 30 33 29 34 40 39 35 40 49 52 55 56 58 63 68 70 71 71 74 78 78 77 76 79 83 88 93 98 103 109 112 117 123 126 126 125 126 127 124 115 108
31 32 34 33 28 27 37 42 41 42 44 55 57 60 61 64 68 73 76 74 74 78 81 79 77 80 84 89 93 98 103 108 114 119 124 126 125 122 124 126 123 117 110 102
36 37 38 36 33 33 40 41 46 50 53 59 63 63 65 68 72 76 78 78 79 82 82 80 81 86 90 94 98 103 108 115 119 124 125 124 121 121 124 123 118 112 103 98
39 39 40 40 42 40 44 49 54 57 60 62 64 67 70 72 77 77 80 82 83 84 83 83 87 92 95 99 104 109 115 118 123 124 120 119 121 121 121 118 113 104 99 93
43 46 46 50 50 49 51 56 58 62 65 68 71 74 75 78 79 80 83 84 85 84 84 88 93 97 102 106 110 115 119 121 121 121 120 120 119 119 116 113 105 99 94 86
49 50 50 50 54 57 59 60 63 67 70 73 76 78 80 82 82 84 85 85 87 88 91 95 99 104 108 112 116 119 119 118 118 119 120 117 117 115 112 107 100 94 87 78
53 54 56 55 60 61 65 68 71 73 76 80 82 82 83 83 85 88 87 87 88 92 96 100 105 110 115 117 120 119 117 117 119 119 118 115 113 111 107 102 95 88 79 73
60 63 61 59 64 65 69 74 77 80 83 84 84 84 87 88 88 88 88 91 93 97 102 108 113 116 119 120 118 115 115 117 118 116 115 113 110 106 101 96 90 80 74 71

GFSCGP_250_spd_027.txt.gz
Wind_Speed
26 25 25 24 23 27 25 28 30 33 33 33 34 38 39 45 48 53 52 49 58 58 60 55 48 51 52 47 47 48 41 44 32 54 52 54 62 66 77 85 91 92 92 91
21 21 20 19 23 26 27 30 32 32 32 33 35 38 40 42 44 46 48 48 45 43 42 44 45 43 45 47 47 45 43 44 43 55 62 62 63 70 79 83 85 84 86 86
26 25 25 24 24 24 24 25 27 29 30 30 31 33 34 36 37 38 38 38 38 38 39 43 45 44 42 40 40 42 44 47 48 53 61 64 66 70 73 76 77 78 79 81
25 22 21 22 22 22 22 24 25 25 26 27 28 31 35 35 34 33 32 33 35 39 38 34 33 34 35 36 39 41 42 45 48 52 55 58 62 66 70 72 74 76 78 79
23 23 22 23 23 21 21 22 23 23 24 25 27 29 30 30 30 30 29 29 30 29 28 28 28 30 31 35 38 40 43 46 49 51 54 58 62 65 66 68 70 73 76 79
22 21 21 19 18 19 20 22 22 23 23 25 26 25 27 23 22 24 22 21 21 23 26 28 30 32 36 38 41 44 47 50 53 56 59 62 65 67 69 70 72 73 76 77
22 20 19 19 19 20 23 22 20 22 23 21 18 17 15 12 10 12 14 17 20 25 29 32 36 38 41 44 47 51 54 56 59 61 63 65 66 68 69 70 71 73 73 77
18 17 17 17 19 21 19 17 16 13 10 8 6 6 9 10 12 14 17 21 25 28 32 35 39 43 45 49 51 54 56 58 60 62 63 64 64 65 67 68 70 74 78 81
17 18 17 15 12 11 11 11 9 9 7 5 6 8 11 13 15 18 22 27 30 31 34 37 41 44 47 50 52 54 56 58 59 60 62 63 65 67 69 72 75 78 82 90
14 14 13 12 13 13 14 13 11 7 6 8 9 10 12 15 18 19 22 26 29 33 37 40 42 45 48 51 52 53 56 57 59 60 61 63 67 69 70 73 80 83 91 97
12 12 13 14 16 16 14 9 7 6 6 8 11 12 15 18 21 21 24 27 32 36 38 42 46 48 50 52 54 56 58 59 59 60 60 63 67 71 76 80 85 92 97 103
14 16 18 19 16 12 7 4 4 7 9 12 15 16 20 22 21 24 28 32 36 40 44 46 46 49 52 54 57 58 57 59 59 60 62 69 73 79 83 88 94 99 105 109
19 19 19 15 10 7 6 7 9 11 14 17 19 21 22 23 25 30 32 36 40 45 50 53 53 53 54 58 60 61 59 59 59 64 70 76 81 86 90 95 101 107 110 111
17 15 12 10 9 8 9 11 14 17 19 21 22 26 23 27 30 33 37 41 45 50 54 59 61 62 63 64 68 68 65 65 67 70 75 82 87 92 97 103 108 111 114 117
15 14 12 11 12 12 13 15 19 21 24 26 26 31 23 31 36 40 44 49 52 55 59 64 66 66 68 69 72 72 71 70 73 78 84 89 94 98 104 109 112 116 116 116
15 15 16 16 15 15 18 22 25 26 29 29 31 33 30 36 41 46 51 53 57 60 63 68 69 69 72 73 76 77 75 75 79 84 91 95 100 106 109 114 117 117 117 120
20 21 19 18 19 19 25 30 30 32 32 32 34 34 36 42 47 52 55 58 60 63 67 71 73 74 76 78 80 79 79 82 86 91 97 102 107 111 114 118 117 117 117 119
23 23 22 24 25 24 32 36 37 35 34 34 36 37 41 47 52 58 61 63 66 70 72 75 76 77 81 82 82 81 82 86 92 98 102 108 111 115 118 116 117 117 117 116
27 27 26 28 30 30 35 39 42 40 37 38 37 42 48 52 57 61 64 68 71 74 77 79 79 81 84 85 84 84 87 92 98 104 108 112 115 116 116 117 115 115 114 111
30 29 29 33 32 34 41 44 44 42 40 42 45 50 54 57 60 65 67 72 76 79 80 82 83 86 88 88 87 89 93 98 104 109 112 115 115 113 111 111 112 113 110 106
32 32 34 36 36 39 44 45 46 47 47 48 52 58 61 64 67 70 74 78 81 82 83 84 89 90 90 87 90 94 98 104 110 114 116 115 114 111 111 113 112 109 106 103
37 37 40 42 44 44 44 46 48 51 53 56 59 63 66 69 73 77 80 84 85 87 87 91 92 89 88 91 95 100 106 111 114 117 117 114 113 111 111 113 110 106 104 100
41 43 44 47 49 49 48 47 51 54 58 61 64 67 70 74 77 81 84 87 90 90 93 93 89 90 93 97 102 107 111 115 118 117 114 110 111 112 111 108 105 104 101 95
44 47 49 50 53 53 54 56 57 59 63 65 69 72 76 79 82 86 89 89 91 94 89 88 91 94 97 103 108 112 116 118 115 112 110 110 111 111 108 106 106 102 96 91
49 49 47 47 53 55 59 61 63 65 68 71 75 79 83 87 90 90 89 90 90 88 90 93 96 100 105 110 114 117 117 115 114 112 109 110 113 111 111 107 103 98 92 86
55 52 54 57 60 60 62 66 69 72 75 79 83 87 90 91 91 90 89 89 90 93 96 100 105 109 112 116 119 117 114 113 114 114 113 111 112 112 108 103 99 93 87 81